World > North America > United States > Montana   City of Billings, MT

Billings, Montana Regional Weather

Lat: 45.79N, Lon: 108.54W
Wx Zone: MTZ035Web Search

Helpful Tip: Type the letters wx in the search engine next time you need to find us.

Feedback
Billings Weather Map
UTC Time: 10/20/2020, 08:42
Your Time:

Billings, MT Regional Weather

Expires:202010200900;;786258
ASUS45 KTFX 200810
RWRMT 
Montana Regional Weather Roundup
National Weather Service Great Falls MT
200 AM MDT TUE OCT 20 2020

NOTE: "FAIR" indicates few or no clouds below 12,000 feet with no
significant weather and/or obstructions to visibility.


MTZ028>42-056>058-200900-
Southcentral and southeast Montana
  
CITY           SKY/WX    TMP DP  RH WIND       PRES   REMARKS
Baker          CLOUDY    33  32  96 S12       29.85S WCI  24          
Big Timber     MOCLDY    43  36  75 W26       29.84F                  
Billings       LGT RAIN  35  33  92 SW16      29.83F FOG     WCI  25  
Hardin         CLOUDY    34  34 100 S8G18     29.84  WCI  27          
Harlowton      FAIR      38  33  83 W17       29.82R WCI  28          
Laurel           N/A     37  36  93 SW14      29.85F WCI  29          
Livingston     LGT RAIN  41  38  89 NW3       29.88S                  
Miles City     CLOUDY    33  32  96 NW3       29.83S                  
$$

Regional Reports...Dakotas/MN
  
CITY           SKY/WX    TMP DP  RH WIND       PRES   REMARKS
Williston      LGT SNOW  28  25  88 SE10      29.90F FOG     WCI  19  
Minot          CLOUDY    29  19  66 SE9       30.01F WCI  20          
Dickinson      LGT SNOW  28  26  92 SE17      29.87F FOG     WCI  16  
Beach          CLOUDY    30  30 100 SE10      29.86F WCI  21          
Crosby         CLOUDY    28  23  80 SE7       29.95S WCI  21          
Hettinger      MIX PCPN  29  29 100 SE10      29.91F WCI  20          
Tioga          CLOUDY    28  28 100 SE16      29.94F FOG     WCI  17  
Watford City   CLOUDY    28  28 100 SE7       29.93F FOG     WCI  21  
Bismarck       LGT SNOW  31  30  96 SE10      30.03F FOG     WCI  22  
Grand Forks    CLOUDY    24  14  65 SE6       30.18S WCI  17          
Fargo          CLOUDY    33  25  72 SE8       30.18R WCI  26          
Buffalo SD       N/A     33  29  85 S9        29.85F WCI  25          
Rapid City     CLOUDY    33  32  96 E9        29.89R WCI  25          
Intl Falls     CLEAR     12   7  80 CALM      30.23S                  
Duluth         CLOUDY    29  23  78 E3        30.23S                  
Minneapolis    CLOUDY    31  29  92 SE6       30.26F WCI  25          
$$

Regional Reports...WY/ID/WA
  
CITY           SKY/WX    TMP DP  RH WIND       PRES   REMARKS
Buffalo WY     CLOUDY    37  34  89 NW18      29.88R WCI  27          
Cody           CLOUDY    42  37  82 N12       29.85S                  
Gillette       CLOUDY    38  36  92 NE6       29.83R                  
Powell         FAIR      37  34  87 NW10      29.83S WCI  30          
Sheridan       RAIN      38  36  92 W9        29.89S FOG     WCI  31  
Yellowstone La   N/A     39  28  64 W9G23     29.97S                  
Boise          MOCLDY    50  35  56 S3        30.04R                  
Couer d'Alene  MOCLDY    46  37  71 W7        30.04R                  
Idaho Falls    CLOUDY    50  32  50 S16       29.99R                  
Salmon         CLOUDY    53  39  59 N6        29.95R                  
Spokane        PTCLDY    41  31  67 W10       30.05R                  
Seattle        CLOUDY    51  49  92 E7        30.23R                  
$$

Regional Reports...Alberta
  
CITY           SKY/WX    TMP DP  RH WIND       PRES   REMARKS
Calgary        FLURRIES  27  19  74 N12       29.96R WCI  16          
Del Bonita       N/A     27  27 100 W13         N/A  WCI  16          
Edmonton       CLOUDY    25  19  80 NW9G17    29.94R WCI  15          
Fort McMurray  FLURRIES  23  16  74 E2        29.96S                  
High Level     CLEAR      9   7  92 CALM      29.96S                  
Lethbridge     LGT SNOW  27  25  93 W3        29.96R                  
Lloydminster   LGT SNOW  21  18  86 CALM      29.88                   
Medicine Hat   CLOUDY    28  25  86 W8        29.94R WCI  20          
Milk River       N/A     23  21  93 W6          N/A  WCI  16          
Onefour          N/A     27  25  93 NW16        N/A  WCI  14          
Peace River    CLEAR     12   9  85 W12       29.98S WCI  -2          
Pincher Creek    N/A     32  28  86 W3        29.93R                  
Raymond          N/A     28  27  93 W8          N/A  WCI  20          
Fort Smith NWT CLEAR      7   3  85 CALM      29.98S                  
$$

Regional Reports...Saskatchewan
  
CITY           SKY/WX    TMP DP  RH WIND       PRES   REMARKS
Assiniboia       N/A     25  21  86 SE6         N/A  WCI  18          
Coronach         N/A     27  25  93 E9          N/A  WCI  17          
Cypress Hills    N/A     23  21  93 NW9G18      N/A  WCI  13          
Estevan        CLOUDY    25  18  74 E13       29.96F WCI  13          
La Ronge         N/A     25  12  58 S5          N/A                   
Moose Jaw        N/A     25  18  74 SE9         N/A  WCI  15          
Prince Albert  CLOUDY    19  12  73 E6        30.00S WCI  11          
Regina         FLURRIES  23  14  68 SE16      29.92F WCI  10          
Rockglen         N/A     25  21  86 S7          N/A  WCI  17          
Saskatoon      FLURRIES  21  18  86 E5        29.93S                  
Swift Current  FLURRIES  23  21  93 S6        29.81  WCI  16          
Uranium City     N/A     23  21  93 MISG        N/A                   
$$
  

SKY/WX - Weather  TMP - Temperature  DP - Dew Point  RH - Relative Humidity
WIND - Wind Direction/Speed PRES - Barometric Pressure VSB - Visibility
WCI - Wind Chill Index E13G22 Wind - East Wind 13 mph/Gusts of 22 mph